Theta_e
330 331 331 331 330 329 328 328 328 327 327 327 326 326 326 325 326 324 324 324 324 324 325 326 327 328 329 329 329 329 329 329 330 329 329 328 327 327 328 328 328 326 325 324 324 324 328 330 330 331 330 328 329 329 329 330 331 330 329 330 331 331 330
327 328 328 329 330 329 329 329 329 328 327 326 326 326 326 325 326 325 324 324 324 324 325 325 326 326 327 327 328 328 329 329 329 328 327 327 327 326 326 328 328 328 326 324 321 320 323 326 327 330 329 329 329 329 328 329 330 329 328 328 329 330 330
325 325 326 326 327 327 327 327 327 327 328 327 326 327 326 326 326 325 325 325 325 324 324 324 324 324 325 325 327 328 329 329 329 329 328 328 326 325 325 327 328 328 327 325 323 321 322 323 324 324 324 329 331 330 328 327 329 329 327 325 326 327 328
324 324 324 325 325 325 325 325 326 326 326 326 327 326 326 326 326 326 326 326 326 326 324 323 323 324 325 324 325 327 328 329 329 329 329 328 326 325 325 326 327 327 328 327 325 324 326 327 328 327 324 326 329 329 329 327 327 328 327 326 325 324 325
322 322 322 323 323 323 324 324 325 325 325 325 325 325 326 326 326 325 325 325 326 326 325 325 325 325 326 327 327 327 328 328 330 330 329 329 328 325 325 325 326 325 325 325 325 325 326 326 329 330 327 325 326 328 328 327 325 325 326 327 325 324 325
320 320 320 321 320 321 322 323 323 324 325 325 325 324 325 325 325 326 326 325 325 325 325 326 326 327 328 329 329 329 328 327 329 329 328 328 328 327 326 325 324 324 323 324 324 323 322 322 325 328 326 324 323 325 327 326 323 322 323 324 324 323 324
318 319 319 319 319 320 320 321 321 322 323 323 324 324 324 324 325 325 325 325 325 325 325 325 326 326 327 327 328 329 329 327 327 327 327 327 327 327 327 325 324 325 324 323 322 321 321 321 323 326 325 324 321 322 325 324 322 321 320 320 322 322 322
317 317 318 318 319 319 319 320 320 320 320 321 322 322 322 323 324 324 324 325 325 325 325 325 324 324 325 326 327 329 328 326 326 326 326 326 326 326 326 326 326 325 325 324 322 321 322 322 322 322 323 326 326 325 326 324 321 320 320 319 319 320 320
316 316 317 317 318 318 318 319 319 318 319 319 319 320 320 320 321 322 322 323 324 324 325 326 326 325 324 325 325 326 327 326 327 327 325 325 325 325 325 326 326 326 325 325 323 322 322 322 321 320 321 325 328 329 330 328 325 321 320 319 318 319 320
316 315 316 316 317 317 317 318 318 318 318 318 318 318 318 318 319 319 320 321 321 322 323 325 326 326 326 324 323 324 325 325 326 326 326 325 325 325 324 324 326 326 325 324 323 322 323 321 320 320 321 322 325 327 328 329 328 324 320 320 318 319 319
316 315 315 316 316 315 316 316 317 317 317 317 317 316 316 317 317 317 317 318 319 320 321 322 324 325 326 325 324 324 323 324 325 325 325 325 325 325 325 324 325 326 326 324 322 322 322 322 321 321 321 321 321 323 324 327 328 324 320 320 319 317 318
316 315 315 315 315 315 315 315 316 316 316 316 316 316 316 315 316 315 315 315 316 317 319 320 322 324 324 324 324 325 325 324 324 325 326 325 324 324 325 325 324 325 326 325 323 322 322 322 322 321 321 321 320 320 321 323 327 324 319 320 319 317 318
315 315 315 314 314 315 315 314 314 314 315 315 315 315 315 314 315 314 313 313 314 315 317 318 320 322 323 322 323 325 324 324 324 325 325 325 325 323 323 324 324 324 325 325 323 322 322 322 322 322 320 320 319 320 319 320 325 325 320 319 320 318 317
315 315 314 314 314 313 313 313 313 313 313 314 314 314 314 314 314 313 313 313 313 314 315 316 318 320 321 322 322 323 323 324 324 324 324 324 325 324 323 324 324 324 324 324 323 323 323 322 322 322 320 319 319 320 320 320 322 323 320 319 320 319 318
314 314 313 313 313 312 312 313 313 313 313 313 313 313 313 312 313 312 312 313 313 313 313 314 316 318 320 321 322 322 323 323 323 323 323 323 324 325 324 324 324 324 323 323 323 323 323 322 321 321 320 319 319 319 319 319 320 320 320 320 320 319 318
314 313 312 312 312 312 311 311 312 313 313 312 312 311 312 311 312 311 311 312 313 312 312 313 313 316 318 320 320 320 321 322 322 321 321 321 322 323 324 324 324 323 322 322 322 322 322 322 321 321 320 319 319 320 319 319 319 318 318 320 319 318 318
313 312 312 311 311 311 311 311 312 312 312 311 311 311 311 311 311 311 311 311 312 311 311 311 312 315 317 319 319 318 319 320 320 320 320 321 321 322 323 323 324 324 322 321 321 321 321 321 320 320 320 318 318 318 318 318 318 317 317 319 320 318 317
311 311 311 311 311 310 310 310 311 310 310 310 310 310 310 309 310 310 311 311 310 310 311 311 313 316 316 317 318 318 317 319 320 320 320 320 321 321 321 322 322 323 322 321 320 320 320 321 320 320 319 318 316 317 318 318 317 317 316 317 318 318 317
310 311 311 310 310 310 310 310 310 310 309 309 309 309 309 310 310 310 310 310 310 310 311 311 314 316 315 315 316 317 316 317 319 320 319 320 320 320 320 321 322 322 322 321 320 319 320 320 320 319 318 317 316 316 317 318 318 317 315 315 315 317 317
310 310 310 310 309 310 310 309 309 309 309 309 309 309 309 309 310 310 310 310 310 310 310 312 315 316 315 314 315 316 316 317 318 319 319 319 319 319 320 320 322 322 322 321 319 319 320 320 319 319 318 317 317 316 316 317 317 316 315 315 315 315 316
309 309 309 309 309 309 309 309 309 309 309 309 309 309 309 310 310 310 310 310 310 310 311 313 315 316 315 315 315 315 316 316 317 318 319 319 318 318 319 319 320 321 321 321 319 318 319 319 319 319 317 316 317 317 316 316 317 316 315 316 315 315 316
309 309 309 309 309 309 308 308 308 308 308 309 309 310 310 310 310 310 310 311 311 311 312 313 315 314 314 314 314 314 314 315 316 317 318 318 318 318 318 318 319 319 319 319 318 318 318 318 319 318 316 316 317 316 317 317 317 316 315 316 316 315 315
308 308 309 309 308 308 308 308 308 308 309 309 309 310 310 310 310 310 311 311 311 311 313 313 314 314 314 314 315 314 313 313 314 316 317 318 317 317 317 317 317 318 318 318 317 317 317 317 318 318 316 316 317 316 316 317 317 316 315 316 316 315 315
308 308 308 308 308 308 308 308 308 309 309 309 309 310 310 310 310 311 311 311 311 312 312 313 314 314 314 314 314 313 311 312 314 315 316 317 317 317 317 316 316 316 316 316 316 316 316 315 316 317 316 316 316 316 317 317 316 315 315 316 315 315 315
308 308 307 307 308 308 308 308 308 308 308 308 309 309 310 310 310 310 310 311 310 311 311 312 313 313 312 312 312 311 310 311 313 314 315 316 316 316 316 316 315 315 315 315 315 314 313 313 315 315 315 315 315 316 316 316 315 315 315 315 315 315 315
308 307 307 307 307 307 307 307 308 308 308 308 309 309 309 310 310 310 310 310 310 310 310 311 312 312 312 312 312 312 310 311 313 314 314 315 316 316 315 315 315 314 313 313 314 313 312 312 313 313 313 313 314 314 314 315 314 314 314 313 314 314 314
307 307 307 307 307 307 307 307 307 307 307 308 308 309 309 309 309 309 309 309 309 309 310 310 311 312 312 312 313 312 311 311 313 314 314 315 315 315 315 315 315 314 313 313 313 313 312 311 311 311 311 311 312 312 313 314 313 312 313 313 312 312 313
306 307 306 307 307 307 307 307 307 307 307 308 308 308 308 308 308 309 308 308 309 309 309 310 310 311 312 312 312 312 311 311 312 314 315 315 315 315 315 315 314 314 313 312 311 311 312 311 310 310 310 309 308 307 308 311 311 310 310 310 310 310 312
306 306 306 306 306 306 306 306 307 307 307 307 307 308 308 308 308 308 308 308 309 308 309 310 311 311 312 312 311 311 310 309 310 312 314 315 316 316 315 315 314 313 313 312 311 309 309 310 309 308 308 307 305 304 303 306 309 309 307 306 306 308 310
306 306 306 306 306 306 306 306 306 306 306 306 307 307 307 307 307 307 307 308 308 308 309 310 310 310 310 311 310 309 308 309 310 311 313 313 314 315 315 315 315 314 313 313 312 311 310 310 309 307 306 305 305 304 302 302 304 305 304 303 302 304 308
306 306 305 305 305 305 305 306 306 305 306 306 306 306 307 307 307 307 307 307 307 308 309 309 309 309 310 309 308 307 308 309 310 311 312 312 312 313 314 314 314 314 313 313 313 313 313 312 310 308 307 306 306 306 304 302 303 305 306 305 304 305 307
306 305 305 305 305 305 305 305 305 304 305 305 306 306 306 306 306 306 306 307 307 308 309 309 309 309 309 308 307 306 308 309 310 310 311 311 311 312 313 314 313 313 312 312 313 314 314 313 311 309 308 308 307 307 306 304 305 307 308 306 306 306 307
306 305 305 305 305 305 305 304 304 304 304 305 305 305 305 306 306 306 306 306 307 307 309 309 309 309 308 307 305 305 307 308 308 308 308 309 310 312 313 313 313 312 311 311 312 313 314 314 312 310 309 309 308 308 307 306 307 308 308 307 306 306 307
306 306 305 305 305 305 304 304 304 304 304 304 304 305 305 305 305 305 306 306 306 307 308 309 307 307 306 305 304 304 305 305 306 307 307 308 309 311 311 312 312 312 311 310 310 311 313 313 312 311 310 309 309 308 308 308 309 309 308 307 306 305 306
306 306 306 306 305 305 304 304 303 304 304 303 304 304 304 304 305 305 305 305 306 307 308 308 307 306 306 305 304 304 304 303 305 306 307 308 308 309 310 310 311 311 310 310 310 310 310 311 312 311 310 310 309 308 308 308 308 308 307 307 306 305 306
306 306 306 306 306 305 304 304 303 303 303 303 303 303 303 304 304 304 304 305 305 306 307 308 307 306 305 305 304 304 303 303 304 306 307 307 308 308 309 309 309 309 309 309 309 309 309 310 310 310 310 309 308 308 308 308 308 308 307 306 305 305 305
307 306 306 306 306 305 305 304 303 303 303 303 302 302 302 303 303 303 302 303 304 305 306 307 307 306 305 305 304 303 303 303 304 304 305 307 307 308 308 308 308 308 308 308 308 308 309 309 309 309 309 308 308 308 307 307 307 307 307 306 305 305 305
Wind_Speed
15 15 15 14 16 17 17 15 14 14 14 13 12 12 10 10 9 7 9 10 10 9 9 10 12 12 13 13 13 14 13 11 12 13 13 13 13 12 10 9 9 10 11 12 11 8 3 2 3 4 6 5 3 3 2 6 9 10 12 13 12 12 11
16 15 15 15 15 16 16 15 15 15 15 14 14 13 12 11 10 10 12 13 12 11 12 12 12 12 13 12 12 13 14 13 13 13 14 14 14 15 14 10 9 9 12 13 14 13 7 4 4 3 5 6 6 4 4 4 4 5 7 10 12 12 10
16 16 16 16 16 16 16 16 16 15 15 15 14 14 14 13 13 13 13 13 13 13 14 14 14 15 15 13 12 13 14 15 15 14 15 15 15 16 16 14 11 9 9 9 10 10 9 7 5 5 5 5 7 8 10 8 8 8 6 8 11 11 11
16 17 17 16 17 17 17 17 16 16 15 14 14 14 14 14 14 15 15 14 15 15 15 16 17 17 17 15 14 14 14 14 15 15 16 16 16 16 16 16 14 12 10 8 9 9 5 4 3 4 6 4 5 11 14 10 10 12 10 10 11 11 12
16 16 16 16 17 18 17 17 17 16 16 15 15 15 14 13 12 14 15 15 16 17 17 18 19 19 18 16 16 17 17 15 15 15 16 16 16 17 17 17 16 16 15 12 12 11 8 5 3 2 5 8 5 7 17 14 11 12 13 15 14 13 13
16 16 16 15 16 18 18 18 18 17 16 16 15 16 15 14 13 13 14 15 16 17 18 18 19 19 18 17 17 19 20 19 17 16 16 16 16 17 18 18 17 17 17 15 13 12 10 7 4 3 5 9 8 3 15 17 12 12 13 16 17 16 16
16 15 15 15 16 17 17 17 17 17 17 16 16 16 16 15 15 15 15 16 15 16 17 18 19 20 20 20 18 19 22 23 21 19 18 18 17 18 18 19 19 18 18 17 15 13 10 8 6 5 5 6 8 3 10 14 14 14 13 13 16 18 17
17 16 15 15 15 16 17 17 17 17 17 17 17 17 16 16 16 17 17 17 16 16 17 18 20 20 20 20 20 21 22 22 22 22 21 19 18 18 19 20 22 20 18 17 17 14 11 9 9 9 7 3 5 5 4 7 9 13 16 14 15 18 19
17 17 17 16 15 15 17 17 17 16 16 17 19 19 18 17 17 18 18 17 18 18 18 18 20 20 19 20 21 22 24 22 22 22 23 23 21 19 19 22 24 23 20 17 17 16 14 13 11 10 8 5 3 3 2 4 6 7 16 17 16 19 20
18 18 18 17 16 16 18 18 17 17 17 17 18 19 19 19 19 19 19 18 18 19 19 18 19 20 20 20 20 21 23 23 22 22 23 25 25 22 21 23 24 24 23 20 18 18 16 15 14 10 9 8 6 3 1 3 3 4 10 15 18 20 19
18 19 18 17 18 19 19 19 18 17 18 18 18 18 18 19 20 20 20 20 20 20 19 19 19 20 20 19 20 21 21 22 23 23 24 27 28 25 23 24 24 24 24 23 21 19 17 15 14 13 10 9 9 6 4 3 2 3 3 1 11 21 21
19 18 17 18 20 20 19 19 19 19 20 20 21 19 17 18 19 19 21 23 24 22 19 19 20 20 20 19 19 21 22 22 23 22 23 26 28 26 24 25 26 25 24 23 22 21 19 16 15 14 12 11 11 9 7 4 2 3 3 8 9 19 20
19 17 17 19 20 19 19 18 19 20 21 21 22 20 18 19 18 16 19 22 24 24 21 20 21 21 20 20 19 21 22 22 21 21 22 24 25 26 26 25 26 26 24 23 23 22 20 18 16 15 14 12 12 10 8 6 3 4 4 4 11 15 16
19 18 18 18 18 19 21 20 17 18 21 22 22 21 21 22 20 17 19 21 23 25 24 21 22 22 20 19 19 20 21 21 20 21 22 23 23 24 26 25 24 24 24 24 24 22 20 19 17 16 16 14 13 13 10 8 7 5 5 3 7 11 14
19 19 18 18 18 19 21 21 19 18 20 21 22 22 22 23 23 22 22 21 21 24 25 24 23 22 21 20 19 19 19 19 20 22 22 21 22 22 23 22 22 22 21 23 25 23 20 20 19 18 18 15 14 15 14 12 10 7 5 7 8 7 9
20 20 20 19 20 19 20 22 21 20 20 21 21 22 23 24 25 25 24 23 22 22 24 26 25 24 24 22 20 18 18 18 20 23 22 20 21 22 22 21 23 24 21 19 22 22 21 21 20 19 18 17 15 15 15 14 12 9 7 9 11 9 9
21 21 22 21 21 21 21 22 21 21 22 23 22 22 24 24 24 24 24 24 25 25 22 24 26 25 23 22 18 17 19 20 19 20 21 20 19 20 20 21 23 26 25 22 21 21 23 22 19 18 18 17 16 14 14 15 13 9 6 6 9 12 13
20 21 21 20 20 20 20 20 20 22 23 23 23 23 24 24 22 22 22 23 26 28 25 23 23 23 24 25 22 19 21 22 20 18 20 21 21 20 21 22 22 23 25 27 25 22 22 21 18 16 16 16 15 14 12 12 13 9 6 4 4 6 12
20 21 19 20 22 21 20 19 21 22 22 23 25 24 24 24 22 22 24 24 25 27 27 23 20 22 26 25 22 20 21 22 21 19 19 20 21 21 21 23 23 23 25 27 27 24 21 22 20 16 14 14 13 15 12 10 12 9 7 6 6 4 7
19 21 20 21 23 23 22 23 23 23 23 24 25 25 24 25 25 24 25 25 24 25 25 21 18 21 24 21 20 21 21 21 21 20 19 19 19 21 21 23 23 24 26 27 27 24 21 25 23 17 16 15 12 14 15 11 10 9 7 7 7 7 6
19 21 21 21 21 23 24 25 24 24 25 25 24 24 24 25 26 26 25 25 24 24 23 20 19 21 21 20 20 20 19 20 21 20 20 19 18 20 21 21 22 22 24 26 25 20 18 23 24 20 21 18 12 10 15 12 10 9 9 8 8 8 8
20 21 21 21 21 22 24 24 24 25 25 24 23 23 24 25 26 26 26 26 26 25 23 21 21 20 19 20 20 20 20 20 19 19 20 19 18 20 19 18 18 19 21 23 23 20 18 20 21 21 22 18 13 8 12 11 10 8 9 9 9 9 9
22 21 20 21 22 23 23 23 24 24 23 23 23 24 24 25 25 25 26 26 25 25 23 21 20 18 18 20 20 20 21 20 18 18 20 19 18 19 18 16 16 16 18 19 20 20 20 19 17 19 22 17 13 11 11 10 10 8 8 10 10 11 10
22 20 21 22 22 23 23 23 23 23 22 23 24 24 24 24 24 24 25 25 24 24 22 21 20 18 19 21 20 21 23 21 18 17 18 18 18 18 18 16 15 14 14 15 16 17 18 15 13 19 22 16 13 14 11 10 12 10 7 7 8 9 10
21 20 21 21 22 23 24 24 24 23 24 24 23 24 24 24 24 24 24 24 24 23 22 21 20 19 19 21 21 22 24 21 18 17 18 18 18 19 18 17 17 15 11 10 11 13 13 12 12 17 20 16 13 14 11 10 13 11 7 4 5 6 7
20 20 20 20 22 24 24 24 25 25 25 24 23 24 25 24 25 24 24 25 24 22 23 23 21 19 19 20 21 23 24 21 16 17 18 18 18 19 19 17 18 18 14 10 8 9 11 12 13 15 16 14 13 13 11 10 11 10 7 6 4 3 3
21 21 21 21 22 22 22 23 24 25 25 24 24 25 25 25 25 24 24 25 24 23 23 22 21 20 19 19 20 23 24 21 17 18 19 18 17 18 18 17 17 18 19 19 16 12 11 12 13 13 14 13 12 12 12 12 11 9 9 7 4 2 4
20 20 20 21 21 21 22 23 24 24 23 24 24 24 25 26 25 23 24 25 25 25 24 23 22 21 19 19 21 23 24 22 20 19 20 20 18 16 16 16 19 19 19 22 22 19 16 15 15 15 15 14 14 14 14 14 13 11 11 9 7 6 7
19 19 19 20 21 22 23 24 24 23 23 23 24 24 25 26 24 23 25 25 25 25 24 21 20 18 18 19 22 24 24 23 21 20 19 19 18 16 15 16 18 21 21 22 22 23 24 21 19 19 19 18 18 19 19 18 17 16 15 14 13 12 10
19 19 19 20 21 22 23 23 23 24 23 24 24 24 24 24 24 25 25 25 25 25 21 19 20 20 18 19 22 25 24 21 20 19 19 19 17 15 16 15 15 19 22 24 24 25 27 27 25 23 22 21 21 21 22 22 20 19 17 17 18 17 14
19 19 20 20 21 21 22 21 21 23 24 24 24 23 22 23 24 25 25 25 24 22 19 19 21 19 17 18 22 24 21 18 18 18 19 21 19 16 16 16 14 15 17 21 24 27 28 28 28 27 25 23 22 21 21 20 19 17 15 16 18 18 16
17 19 20 21 21 21 22 21 20 21 23 24 23 22 22 23 24 24 25 24 22 22 20 19 17 15 16 19 22 22 19 15 16 18 19 22 21 18 17 17 15 14 15 16 18 24 29 30 30 29 28 27 23 22 22 21 20 20 17 15 16 17 16
15 17 19 21 22 22 23 22 22 21 21 21 22 23 23 23 22 23 24 22 21 21 18 14 13 13 15 18 21 21 19 15 16 18 20 20 20 19 18 17 15 15 15 15 14 17 22 27 30 29 28 28 26 24 23 22 22 22 19 15 14 14 15
15 16 18 20 21 22 23 24 24 23 20 20 21 22 23 23 20 21 23 22 20 19 13 10 12 13 13 17 20 20 20 18 18 20 20 18 18 19 20 18 17 17 16 15 13 13 15 20 26 28 28 27 26 24 22 20 19 19 18 14 12 12 12
15 16 18 20 20 21 23 23 23 24 23 21 19 20 22 22 19 19 22 21 19 17 13 11 13 12 12 16 19 19 21 21 20 19 19 18 18 19 20 18 17 16 15 14 13 11 11 14 19 23 23 22 21 20 18 15 15 17 16 13 12 13 14
16 17 18 19 20 22 23 22 21 24 23 19 17 19 21 20 18 19 22 21 19 17 15 13 13 11 11 16 18 19 21 21 20 18 18 19 19 19 18 18 17 16 14 14 13 11 10 10 12 16 18 19 19 18 17 14 13 16 16 14 13 14 15
17 18 19 20 21 23 23 20 20 21 21 19 16 16 17 18 18 19 22 22 20 19 17 15 12 10 12 16 19 19 20 20 19 19 19 19 18 17 18 19 17 15 16 15 12 9 8 8 12 13 15 17 16 16 16 14 12 15 16 14 13 14 16
Wind_Direction
5 360 353 351 356 360 4 4 359 358 355 350 349 349 343 337 326 315 315 316 307 290 288 290 290 295 297 293 295 300 300 290 287 293 292 292 295 292 283 261 253 262 262 255 248 248 266 282 251 217 218 225 193 175 115 99 114 130 136 137 141 152 172
8 4 359 354 353 356 1 2 359 358 357 354 352 349 347 344 332 319 317 323 320 301 289 283 277 282 286 285 285 290 294 288 281 285 286 284 286 291 294 280 261 262 268 267 255 239 226 239 265 244 206 176 157 185 192 150 138 145 132 129 136 148 161
9 5 1 359 358 359 359 358 357 355 354 356 356 352 348 345 336 325 319 322 321 310 299 292 285 284 285 282 281 281 282 279 277 277 278 279 278 281 289 291 282 268 266 274 270 250 228 221 231 258 246 174 155 175 179 171 166 162 142 135 139 147 160
11 6 2 1 360 358 357 355 353 351 350 351 351 351 350 346 338 330 323 318 315 309 302 296 294 293 290 282 277 276 276 274 274 273 274 276 276 276 279 284 284 277 270 273 279 281 271 246 231 265 282 259 200 176 173 174 170 166 155 146 139 132 151
11 7 2 1 360 355 353 352 350 350 350 348 347 347 346 344 337 329 325 319 314 310 304 299 297 298 297 292 286 284 278 270 265 265 271 275 276 275 274 276 278 274 274 278 280 289 306 319 316 315 304 297 293 165 167 176 177 171 160 154 144 126 139
8 6 2 1 359 354 350 349 350 348 348 347 345 344 341 338 333 328 324 320 314 311 309 305 302 301 298 293 290 290 286 278 268 260 261 268 274 276 274 273 274 271 270 273 274 278 287 300 311 304 295 299 316 121 160 175 179 168 164 163 152 134 136
3 359 358 356 353 352 348 346 347 346 347 346 344 341 337 334 332 329 324 319 315 313 311 305 300 298 294 290 289 292 292 288 279 266 259 260 266 274 276 272 270 269 266 267 270 273 269 266 263 250 264 288 292 261 166 179 186 169 168 176 159 143 142
355 350 351 349 348 350 346 342 344 344 344 344 342 339 336 333 331 328 325 321 317 314 309 304 302 301 295 291 289 287 285 284 281 274 268 264 261 264 272 273 269 267 266 264 266 269 262 249 249 247 245 258 273 265 190 202 218 180 169 177 165 153 153
350 347 345 343 344 348 344 339 339 341 343 343 341 338 335 334 330 326 325 321 318 316 310 305 305 306 301 293 289 282 278 278 280 279 274 270 261 255 260 268 269 264 262 262 258 259 257 247 247 254 251 242 242 258 214 231 258 187 170 173 166 160 161
348 346 342 340 343 346 341 336 336 339 340 340 338 336 334 333 331 327 323 320 320 319 313 306 301 299 298 298 297 288 278 274 276 278 276 271 265 256 249 253 263 264 259 260 257 252 252 247 244 247 247 241 237 243 240 234 251 205 185 179 169 165 166
345 343 339 341 345 345 339 334 336 338 336 335 332 330 331 331 330 329 328 326 322 317 313 309 303 293 289 295 300 295 287 280 278 278 276 271 264 259 249 242 249 259 259 257 257 251 247 244 240 238 236 238 237 236 237 250 267 255 272 258 166 167 164
342 339 339 344 344 340 336 336 338 337 334 332 326 323 328 328 325 330 333 330 323 317 313 312 306 295 291 293 292 291 291 286 278 274 271 267 261 256 254 246 240 245 252 256 256 250 242 239 237 233 232 231 231 236 234 232 280 271 333 30 107 153 159
341 340 342 344 341 337 335 333 334 335 331 327 322 322 325 320 316 325 332 328 323 320 316 315 311 302 299 298 289 284 288 286 279 274 269 267 264 258 257 253 242 238 243 251 256 250 238 235 235 228 229 229 223 228 230 213 226 272 290 44 101 135 153
340 340 342 344 342 339 332 324 327 335 331 326 326 326 325 321 320 328 332 326 324 322 319 317 315 309 304 299 291 286 287 287 285 283 278 274 272 264 257 254 250 244 240 242 249 250 238 233 233 227 227 229 220 215 216 210 212 251 269 216 132 128 143
338 338 342 344 338 332 329 328 333 337 330 328 330 329 329 331 332 336 333 324 321 323 322 320 318 314 309 300 293 291 290 290 290 289 287 281 277 271 261 256 257 256 249 243 245 248 241 232 230 227 225 225 220 209 206 209 211 222 228 190 168 150 150
338 339 342 339 332 332 338 339 338 334 330 331 332 332 334 336 335 334 329 322 319 319 320 322 321 318 314 305 295 291 293 298 300 298 295 289 282 276 269 262 258 255 253 249 245 246 247 237 228 224 223 222 219 208 201 203 207 216 216 190 189 200 187
340 339 336 334 334 340 344 340 336 336 333 331 333 336 336 332 329 326 322 321 321 317 317 322 322 322 323 321 315 310 309 311 312 311 305 298 288 280 276 271 262 254 251 253 249 246 248 245 236 227 222 222 219 209 201 199 203 218 221 198 198 197 184
336 330 327 331 335 338 338 335 336 335 330 329 331 332 328 323 320 322 323 323 322 320 321 324 324 326 331 331 330 329 324 318 316 316 312 305 294 286 282 277 270 257 248 248 248 248 247 242 244 241 227 222 218 209 201 188 192 211 226 227 233 200 182
335 329 331 338 338 336 336 336 334 330 329 331 330 328 327 327 329 332 330 327 324 322 322 322 323 327 331 330 329 333 332 323 314 309 310 307 300 295 289 280 274 259 247 243 241 248 243 226 235 248 229 224 221 205 195 176 177 195 208 218 246 239 188
344 338 338 342 340 338 339 338 335 334 336 335 329 328 332 335 336 335 330 326 324 320 318 321 327 332 336 338 333 333 334 326 315 306 304 302 297 296 291 284 277 262 251 244 235 243 242 220 225 236 220 228 238 202 188 177 173 185 196 206 227 236 207
351 343 339 340 339 340 339 336 337 339 337 332 330 333 337 337 334 330 328 327 326 323 324 329 333 334 338 341 336 334 332 324 317 312 307 301 295 295 291 286 281 264 252 245 234 240 242 220 218 219 207 224 250 203 177 176 177 184 195 203 215 226 219
352 342 336 338 339 339 336 334 337 337 332 331 334 338 338 335 329 327 327 329 328 328 328 329 329 330 334 336 335 335 330 324 318 312 307 304 299 298 294 286 278 263 252 249 239 238 236 217 211 210 203 216 241 200 161 170 184 189 199 203 210 223 226
344 336 336 340 340 336 333 334 334 332 333 337 338 337 334 330 327 326 326 325 324 324 326 327 327 330 335 336 335 334 331 326 320 313 309 306 303 302 295 279 266 254 247 244 236 231 228 217 209 207 202 207 214 189 169 181 188 193 209 211 208 212 219
336 336 342 341 336 334 334 335 333 332 337 338 335 333 331 328 326 325 323 322 321 321 323 326 325 328 335 336 334 334 333 330 321 314 310 305 303 302 292 273 260 249 238 231 224 220 220 217 207 200 199 201 196 185 182 183 182 193 222 228 217 212 215
333 338 344 342 341 342 341 337 335 337 338 335 332 331 328 325 324 323 322 320 319 320 322 323 323 327 332 331 331 334 335 332 322 313 311 307 304 302 292 273 257 244 227 215 212 209 206 203 197 194 198 204 202 195 189 181 185 198 208 204 216 230 231
335 339 342 344 346 344 339 336 336 337 335 331 331 328 324 322 322 321 321 319 318 320 322 322 323 325 326 325 326 330 334 333 322 312 312 311 308 305 297 279 259 245 237 232 222 212 203 191 184 187 192 198 203 204 202 193 194 202 193 175 191 243 279
341 341 343 344 342 338 333 333 334 332 330 328 327 324 322 321 319 320 322 322 321 323 323 323 323 321 319 320 321 325 331 330 318 309 309 311 313 312 303 283 261 247 244 245 240 234 226 210 199 196 196 197 203 210 214 211 210 216 213 204 212 254 286
339 339 341 341 340 338 336 335 332 329 328 325 323 322 321 320 319 322 326 326 326 326 325 325 326 320 316 320 323 327 331 327 317 310 308 306 308 315 312 290 266 249 241 242 241 237 236 235 229 222 216 212 214 220 225 224 223 229 232 233 239 247 257
339 340 340 338 337 337 336 334 330 327 325 322 320 321 321 319 320 324 326 326 326 326 327 329 332 329 324 325 328 332 333 328 319 313 310 309 306 309 316 307 281 261 246 241 240 235 233 239 240 235 230 227 227 232 235 234 233 235 239 243 245 244 249
344 344 343 340 337 335 332 330 328 326 324 321 318 318 319 320 323 326 325 324 326 329 333 337 337 334 331 332 336 338 338 330 320 314 313 317 319 315 316 317 303 280 260 247 242 236 232 233 233 231 231 230 230 233 235 236 237 237 237 240 240 240 243
339 338 338 334 331 330 327 324 323 323 322 319 315 316 320 323 324 324 322 322 328 333 336 337 335 334 339 345 348 348 344 333 324 321 319 321 327 328 322 319 316 303 284 264 250 241 236 232 227 222 221 218 217 221 224 225 227 227 226 227 227 226 229
335 336 334 329 326 325 321 318 319 320 319 316 314 317 321 320 320 321 320 324 331 335 335 337 337 339 347 353 355 356 353 340 331 330 326 323 325 328 325 321 315 312 312 299 269 248 238 231 223 218 213 207 204 210 215 215 216 215 213 213 217 220 221
330 329 325 321 319 319 318 318 319 317 315 315 316 317 318 315 316 321 323 326 332 334 336 345 348 345 350 356 358 358 356 348 340 336 331 326 323 323 327 329 324 320 322 318 295 265 247 233 221 214 210 207 204 204 207 209 212 213 211 208 213 221 223
320 318 314 312 312 315 319 319 317 314 312 312 312 313 315 315 317 325 326 326 334 338 339 349 357 356 359 1 358 356 354 351 345 342 338 331 324 322 326 330 331 327 327 325 311 287 265 245 229 218 213 210 205 197 194 197 201 204 203 203 208 212 210
311 308 306 306 309 312 314 314 314 314 312 310 309 314 318 318 322 330 328 325 333 340 337 343 357 4 8 4 357 353 352 349 344 343 340 335 330 327 324 327 332 332 328 329 322 303 285 267 245 226 213 201 191 184 183 186 191 193 195 199 205 205 202
309 302 299 302 306 305 304 304 309 311 309 310 318 324 324 325 332 335 329 324 332 338 334 337 352 3 5 1 357 353 350 348 346 345 341 336 336 334 324 319 325 329 327 326 323 312 299 276 240 214 197 185 179 180 184 185 187 192 196 200 201 202 204
310 303 298 300 298 295 295 298 302 304 304 308 317 323 324 329 337 337 329 325 328 333 334 335 345 3 3 354 353 353 351 350 349 346 342 338 337 337 332 323 318 318 321 321 316 308 295 255 218 200 188 182 180 182 184 184 188 193 195 196 197 203 208